FW2197 Weather Reports


Display with metric or nautical units.
time (UTC)temp
F
wind
direction
speed
MPH
gust
MPH
rain 1hr
in
rain 24hr
in
rain mn
in
humidity
%
barometer
mb
20260505054533 57 45 3.0 14.0 0.00 0.00 0.00 59 1013.9
20260505054035 57 45 3.0 8.0 0.00 0.00 0.00 59 1013.8
20260505053535 57 45 3.0 13.0 0.00 0.00 0.00 58 1014.0
20260505053033 58 45 3.0 11.0 0.00 0.00 0.00 57 1014.3
20260505052532 58 45 2.0 10.0 0.00 0.00 0.00 55 1014.2
20260505052033 58 45 4.0 12.0 0.00 0.00 0.00 54 1013.8
20260505051532 58 315 5.0 13.0 0.00 0.00 0.00 54 1013.9
20260505051034 58 45 4.0 9.0 0.00 0.00 0.00 54 1013.9
20260505050533 58 45 4.0 12.0 0.00 0.00 0.00 54 1013.5
20260505041533 61 45 2.0 6.0 0.00 0.00 0.00 47 1013.0
20260505041032 62 45 3.0 11.0 0.00 0.00 0.00 46 1013.1
20260505040613 62 45 3.0 9.0 0.00 0.00 0.00 46 1013.0
20260505040034 62 45 2.0 11.0 0.00 0.00 0.00 45 1013.0
20260505035534 62 45 3.0 11.0 0.00 0.00 0.00 46 1013.0
20260505035054 62 45 2.0 7.0 0.00 0.00 0.00 46 1013.0
20260505034533 63 45 3.0 13.0 0.00 0.00 0.00 44 1013.0
20260505034032 64 338 3.0 9.0 0.00 0.00 0.00 38 1012.8
20260505033533 64 45 2.0 7.0 0.00 0.00 0.00 38 1012.7
20260505033054 64 45 1.0 6.0 0.00 0.00 0.00 38 1012.7
20260505032534 64 45 1.0 8.0 0.00 0.00 0.00 39 1012.6
20260505032031 64 0.0 1.0 0.00 0.00 0.00 39 1012.6
20260505031534 64 0.0 2.0 0.00 0.00 0.00 39 1012.9
20260505031033 64 0.0 1.0 0.00 0.00 0.00 39 1012.8
20260505030534 65 0.0 1.0 0.00 0.00 0.00 38 1012.8
20260505030032 65 0.0 1.0 0.00 0.00 0.00 38 1012.8
20260505025534 65 0.0 2.0 0.00 0.00 0.00 37 1012.4
20260505025033 65 0.0 2.0 0.00 0.00 0.00 37 1012.5
20260505024535 65 0.0 2.0 0.00 0.00 0.00 37 1012.1
20260505024033 65 0.0 4.0 0.00 0.00 0.00 37 1012.1
20260505023536 66 0.0 3.0 0.00 0.00 0.00 36 1012.0
20260505023035 66 45 1.0 5.0 0.00 0.00 0.00 35 1012.0
20260505022533 66 0.0 1.0 0.00 0.00 0.00 35 1011.9
20260505022033 66 0.0 2.0 0.00 0.00 0.00 34 1012.0
20260505021533 66 0.0 1.0 0.00 0.00 0.00 35 1011.7
20260505021033 66 0.0 2.0 0.00 0.00 0.00 35 1011.3
20260505020533 67 0.0 3.0 0.00 0.00 0.00 34 1011.3
20260505020033 67 0.0 2.0 0.00 0.00 0.00 34 1011.3
20260505015533 67 315 1.0 4.0 0.00 0.00 0.00 34 1011.4
20260505015033 67 315 1.0 5.0 0.00 0.00 0.00 34 1011.1
20260505014556 68 0.0 2.0 0.00 0.00 0.00 33 1011.0
20260505014033 68 0.0 2.0 0.00 0.00 0.00 33 1011.0
20260505013535 68 0.0 4.0 0.00 0.00 0.00 33 1010.7
20260505013033 68 0.0 3.0 0.00 0.00 0.00 32 1010.7
20260505012533 68 68 1.0 5.0 0.00 0.00 0.00 32 1010.7
20260505012053 68 0.0 3.0 0.00 0.00 0.00 30 1010.8
20260505011533 68 338 1.0 4.0 0.00 0.00 0.00 30 1010.8
20260505011033 69 315 2.0 5.0 0.00 0.00 0.00 30 1011.1
20260505010535 69 0.0 5.0 0.00 0.00 0.00 30 1011.2
20260505010054 69 0.0 2.0 0.00 0.00 0.00 30 1011.2
20260505005532 69 338 1.0 3.0 0.00 0.00 0.00 30 1011.2
20260505005033 69 338 1.0 4.0 0.00 0.00 0.00 29 1011.1
20260505004535 70 338 1.0 3.0 0.00 0.00 0.00 30 1011.5
20260505004033 70 0.0 3.0 0.00 0.00 0.00 30 1011.5
20260505003533 70 248 1.0 4.0 0.00 0.00 0.00 29 1011.4
20260505003034 70 203 1.0 5.0 0.00 0.00 0.00 29 1011.2
20260505002535 70 203 1.0 5.0 0.00 0.00 0.00 29 1011.2
20260505002032 69 203 2.0 6.0 0.00 0.00 0.00 30 1011.4
20260505001553 70 225 3.0 8.0 0.00 0.00 0.00 31 1011.7
20260505001033 70 248 1.0 7.0 0.00 0.00 0.00 30 1011.7
20260505000534 70 225 2.0 5.0 0.00 0.00 0.00 31 1011.8
20260505000035 69 225 2.0 11.0 0.00 0.00 0.00 32 1011.8
20260504235531 69 248 2.0 10.0 0.00 0.00 0.00 31 1011.9
20260504235034 69 248 1.0 8.0 0.00 0.00 0.00 32 1012.2
20260504234533 69 225 3.0 12.0 0.00 0.00 0.00 33 1012.3
20260504234033 69 248 3.0 11.0 0.00 0.00 0.00 32 1012.3
20260504233534 69 225 3.0 11.0 0.00 0.00 0.00 32 1012.6
20260504233033 69 225 1.0 10.0 0.00 0.00 0.00 33 1012.5
20260504232533 69 270 2.0 6.0 0.00 0.00 0.00 32 1012.8
20260504232033 69 315 1.0 7.0 0.00 0.00 0.00 31 1012.8
20260504231533 68 225 1.0 7.0 0.00 0.00 0.00 32 1012.5
20260504231035 68 0.0 1.0 0.00 0.00 0.00 33 1012.5
20260504230533 68 0.0 1.0 0.00 0.00 0.00 33 1012.9
20260504230032 68 0.0 2.0 0.00 0.00 0.00 33 1013.0
20260504225534 68 0.0 2.0 0.00 0.00 0.00 35 1012.8
20260504225033 68 0.0 2.0 0.00 0.00 0.00 35 1012.9
20260504224615 68 248 1.0 5.0 0.00 0.00 0.00 34 1013.0
20260504224054 68 315 1.0 3.0 0.00 0.00 0.00 36 1013.0
20260504223534 66 315 1.0 4.0 0.00 0.00 0.00 37 1013.1
20260504223034 66 203 1.0 3.0 0.00 0.00 0.00 38 1013.4
20260504222533 65 225 1.0 4.0 0.00 0.00 0.00 37 1013.0
20260504222035 66 203 2.0 8.0 0.00 0.00 0.00 36 1013.3
20260504221535 66 315 4.0 11.0 0.00 0.00 0.00 36 1013.3
20260504221032 67 315 4.0 12.0 0.00 0.00 0.00 35 1013.6
20260504220533 68 315 3.0 11.0 0.00 0.00 0.00 33 1013.5
20260504220032 68 315 4.0 16.0 0.00 0.00 0.00 32 1013.6
20260504215534 69 315 3.0 16.0 0.00 0.00 0.00 32 1013.8
20260504215032 68 45 1.0 6.0 0.00 0.00 0.00 31 1013.5
20260504214554 68 45 2.0 9.0 0.00 0.00 0.00 32 1013.5
20260504214033 69 315 1.0 5.0 0.00 0.00 0.00 32 1013.8
20260504213553 69 45 2.0 8.0 0.00 0.00 0.00 29 1013.7
20260504213052 69 315 2.0 6.0 0.00 0.00 0.00 28 1013.6
20260504212534 70 315 1.0 7.0 0.00 0.00 0.00 26 1013.4
20260504212032 70 315 2.0 6.0 0.00 0.00 0.00 27 1013.3
20260504211533 71 315 1.0 5.0 0.00 0.00 0.00 26 1013.3
20260504211053 71 315 1.0 5.0 0.00 0.00 0.00 26 1013.4
20260504210533 72 315 1.0 4.0 0.00 0.00 0.00 25 1013.1
20260504210031 72 0.0 3.0 0.00 0.00 0.00 25 1013.4
20260504205534 72 315 1.0 4.0 0.00 0.00 0.00 25 1013.4
20260504205033 73 315 1.0 5.0 0.00 0.00 0.00 24 1013.4
20260504204535 73 315 2.0 6.0 0.00 0.00 0.00 25 1013.7
20260504204032 73 315 1.0 6.0 0.00 0.00 0.00 24 1013.7
20260504203535 73 0.0 3.0 0.00 0.00 0.00 25 1013.8
20260504203032 73 0.0 2.0 0.00 0.00 0.00 25 1013.9
20260504202535 74 0.0 2.0 0.00 0.00 0.00 24 1013.9
20260504202051 74 0.0 2.0 0.00 0.00 0.00 24 1013.9
20260504201533 74 0.0 3.0 0.00 0.00 0.00 25 1013.6
20260504201034 73 0.0 4.0 0.00 0.00 0.00 24 1013.7
20260504200534 73 0.0 1.0 0.00 0.00 0.00 25 1013.4
20260504200035 73 315 1.0 4.0 0.00 0.00 0.00 26 1013.5
20260504195535 73 315 1.0 5.0 0.00 0.00 0.00 25 1013.4
20260504195035 73 0.0 3.0 0.00 0.00 0.00 25 1013.2
20260504194533 74 0.0 4.0 0.00 0.00 0.00 25 1012.9
20260504194033 73 203 1.0 4.0 0.00 0.00 0.00 25 1012.9
20260504193554 74 68 1.0 3.0 0.00 0.00 0.00 23 1013.3
20260504193033 75 45 1.0 4.0 0.00 0.00 0.00 24 1013.7
20260504192534 74 113 1.0 5.0 0.00 0.00 0.00 23 1013.6
20260504192031 74 90 1.0 11.0 0.00 0.00 0.00 23 1013.6
20260504191535 74 90 1.0 7.0 0.00 0.00 0.00 25 1013.7
20260504191054 74 135 1.0 3.0 0.00 0.00 0.00 23 1013.7
20260504190534 74 45 1.0 3.0 0.00 0.00 0.00 23 1014.1
20260504190034 74 45 1.0 5.0 0.00 0.00 0.00 24 1014.1
20260504185534 74 68 1.0 6.0 0.00 0.00 0.00 25 1014.2
20260504185033 73 315 2.0 7.0 0.00 0.00 0.00 25 1014.5
20260504184534 73 315 2.0 8.0 0.00 0.00 0.00 24 1014.6
20260504184032 73 68 1.0 5.0 0.00 0.00 0.00 26 1014.6
20260504183533 72 45 1.0 4.0 0.00 0.00 0.00 26 1014.4
20260504183033 73 68 1.0 6.0 0.00 0.00 0.00 26 1014.8
20260504182533 73 23 1.0 7.0 0.00 0.00 0.00 27 1015.0
20260504182033 73 23 2.0 6.0 0.00 0.00 0.00 25 1014.8
20260504181554 73 45 1.0 5.0 0.00 0.00 0.00 26 1014.9
20260504181033 73 45 2.0 7.0 0.00 0.00 0.00 24 1014.9
20260504180555 73 68 1.0 4.0 0.00 0.00 0.00 26 1014.7
20260504180034 73 45 2.0 7.0 0.00 0.00 0.00 27 1014.7
20260504175533 72 68 2.0 10.0 0.00 0.00 0.00 27 1014.5
20260504175054 72 45 1.0 6.0 0.00 0.00 0.00 28 1014.5
20260504174532 72 90 2.0 9.0 0.00 0.00 0.00 27 1014.5
20260504174035 72 68 2.0 9.0 0.00 0.00 0.00 27 1014.6
20260504173535 72 45 1.0 7.0 0.00 0.00 0.00 27 1014.8
20260504173033 72 68 2.0 9.0 0.00 0.00 0.00 27 1014.9
20260504172531 72 315 1.0 7.0 0.00 0.00 0.00 28 1015.0
20260504172033 72 315 1.0 6.0 0.00 0.00 0.00 26 1015.0
20260504171533 72 45 1.0 6.0 0.00 0.00 0.00 26 1015.1
20260504171034 72 45 1.0 3.0 0.00 0.00 0.00 28 1015.0
20260504170534 71 68 1.0 7.0 0.00 0.00 0.00 28 1015.1
20260504151034 68 0.0 0.0 0.00 0.00 0.00 29 1015.6
20260504150555 67 0.0 0.0 0.00 0.00 0.00 29 1015.6
20260504141033 59 0.0 0.0 0.00 0.00 0.00 41 1014.8
20260504140534 58 0.0 0.0 0.00 0.00 0.00 39 1014.5
20260504130533 53 0.0 0.0 0.00 0.00 0.00 46 1014.3
20260504110534 60 315 1.0 4.0 0.00 0.00 0.00 32 1015.9
20260504081534 60 23 1.0 6.0 0.00 0.00 0.00 34 1015.5
20260504081034 60 45 1.0 7.0 0.00 0.00 0.00 33 1015.1
20260504080536 58 0.0 7.0 0.00 0.00 0.00 34 1014.9